Regional Weather Roundup
Issued by NWS Little Rock, AR

Home | Current Version | Previous Version | Graphics & Text | Print | Product List | Glossary On
Versions: 1 2 3 4 5 6 7 8 9 10 11 12 13 14 15 16 17 18 19 20 21 22 23 24 25 26 27 28 29 30 31 32 33 34 35 36 37 38 39 40 41 42 43 44 45 46 47 48 49 50
000
ASUS44 KLZK 250105
RWRLZK

WEATHER ROUNDUP FOR ARKANSAS
NATIONAL WEATHER SERVICE LITTLE ROCK AR
700 PM CST FRI FEB 24 2017

NOTE: "FAIR" INDICATES FEW OR NO CLOUDS BELOW 12,000 FEET WITH NO
SIGNIFICANT WEATHER AND/OR OBSTRUCTIONS TO VISIBILITY.

ARZ001-003-010-029-250200-
NORTHWEST ARKANSAS

CITY           SKY/WX    TMP DP  RH WIND       PRES   REMARKS
FAYETTEVILLE   CLEAR     41  26  55 NW17G23   29.91R
FORT SMITH     CLEAR     50  24  36 NW15G22   29.92R
HARRISON       CLEAR     45  26  47 W10       29.85R
BENTONVILLE    CLEAR     37  23  56 NW17G23   29.94R
ROGERS         PTCLDY    38  25  59 W12G24    29.93R
SILOAM SPGS    CLEAR     37  21  52 NW14G26   29.95R
HIGHFILL       CLEAR     38  24  57 NW15G23   29.93R
SPRINGDALE     CLEAR     41  23  48 NW21G26   29.92R
$$

ARZ004-005-016-250200-
NORTH CENTRAL ARKANSAS

CITY           SKY/WX    TMP DP  RH WIND       PRES   REMARKS
BATESVILLE     MOCLDY    55  36  47 NW5       29.80R
FLIPPIN        CLEAR     50  25  37 NW12G18   29.82R
MTN HOME       CLEAR     49  27  42 NW10G22   29.82R
$$

ARZ040-041-250200-
WEST CENTRAL ARKANSAS

CITY           SKY/WX    TMP DP  RH WIND       PRES   REMARKS
MENA           CLEAR     54  30  40 NW9       29.89R
MOUNT IDA      CLEAR     54  31  41 VRB7      29.84R
$$

ARZ009-017-025-026-028-250200-
NORTHEAST ARKANSAS

CITY           SKY/WX    TMP DP  RH WIND       PRES   REMARKS
CORNING        FAIR      54  37  54 W18G26    29.77R
JONESBORO      CLEAR     58  39  49 NW10      29.75R
NEWPORT        MOCLDY    56  43  61 NW10      29.78R
WALNUT RIDGE   CLEAR     54  30  40 W17       29.77R
BLYTHEVILLE    MOCLDY    59  46  62 NW10      29.73R
$$

ARZ022-023-033-042-044-250200-
CENTRAL ARKANSAS

CITY           SKY/WX    TMP DP  RH WIND       PRES   REMARKS
LITTLE ROCK    PTCLDY    57  37  47 W17G23    29.81R
N LITTLE ROCK    N/A     56  39  53 W7        29.81R
JACKSONVILLE   CLEAR     58  38  47 W13       29.80R
SEARCY         PTCLDY    58  43  57 W9        29.80R
HOT SPRINGS    CLEAR     56  34  43 NW10G18   29.85R
RUSSELLVILLE   CLEAR     53  30  41 W12       29.84R
CLINTON        FAIR      52  32  46 CALM      29.82R
$$

ARZ036-250200-
EAST ARKANSAS

CITY           SKY/WX    TMP DP  RH WIND       PRES   REMARKS
WEST MEMPHIS   MOCLDY    64  57  78 W5        29.71R
$$

ARZ050-053-066-070-073-250200-
SOUTHWEST ARKANSAS

CITY           SKY/WX    TMP DP  RH WIND       PRES   REMARKS
ARKADELPHIA    FAIR      59  40  49 NW8       29.83
CAMDEN         PTCLDY    63  48  59 W5        29.80R
TEXARKANA      CLEAR     59  37  44 W15       29.85R
EL DORADO      CLEAR     61  51  70 W6        29.80R
DE QUEEN       CLEAR     55  33  43 NW9       29.87R
$$

ARZ056-057-069-250200-
SOUTHEAST ARKANSAS

CITY           SKY/WX    TMP DP  RH WIND       PRES   REMARKS
PINE BLUFF     CLEAR     62  39  42 NW13      29.78R
STUTTGART      CLEAR     57  36  44 W15       29.79R
MONTICELLO     CLEAR     66  52  60 NW8       29.75R

$$





USA.gov is the U.S. government's official web portal to all federal, state and local government web resources and services.